Nenana, AK

7:23 AM AKDT on June 22, 2017 (GMT -0800)
Nenana Municipal

Weather History for PANN - October, 2013

Change the Weather History Date:

Saturday, October 19, 2013

  Actual Average Record
Temperature  
Mean Temperature 42 °F -  
Max Temperature 59 °F 25 °F 59 °F (2013)
Min Temperature 35 °F 12 °F -6 °F (2008)
Degree Days  
Heating Degree Days 24    
Moisture  
Dew Point 32 °F    
Average Humidity 65    
Maximum Humidity 100    
Minimum Humidity 37    
Precipitation  
Precipitation 0.12 in - - ()
Sea Level Pressure  
Sea Level Pressure 29.49 in    
Wind  
Wind Speed 9 mph (East)    
Max Wind Speed 15 mph    
Max Gust Speed 26 mph    
Visibility 10 miles    
Events Rain    
Averages and records for this station are not official NWS values.
T = Trace of Precipitation, MM = Missing Value Source: NWS Daily Summary

Daily Weather History Graph

Daily Weather History Graph

Search for Another Location

Airport or City:

Trip Planner

Search our weather history database for the weather conditions in past years. The results will help you decide how hot, cold, wet, or windy it might be!

Date:

Astronomy

Oct. 19, 2013 Rise Set
Actual Time 9:01 AM AKDT 6:19 PM AKDT
Civil Twilight 8:11 AM AKDT 7:09 PM AKDT
Nautical Twilight 7:14 AM AKDT 8:05 PM AKDT
Astronomical Twilight 6:18 AM AKDT 9:01 PM AKDT
Moon 6:21 PM AKDT (10/19) 10:16 AM AKDT (10/19)
Length of Visible Light 10h 58m
Length of Day
9h 17m
Full, 99% of the Moon is Illuminated
Oct 19
Full
Oct 26
Last Quarter
Nov 3
New
Nov 9
First Quarter
Nov 17
Full

Hourly Weather History & Observations

Time (AKDT) Temp. Windchill Dew Point Humidity Pressure Visibility Wind Dir Wind Speed Gust Speed Precip Events Conditions
12:53 AM 41.0 °F 34.7 °F 24.1 °F 51% 29.51 in 10.0 mi East 10.4 mph - N/A   Clear
1:53 AM 41.0 °F 35.2 °F 27.0 °F 57% 29.50 in 10.0 mi East 9.2 mph - N/A   Clear
2:53 AM 41.0 °F 33.9 °F 28.9 °F 62% 29.49 in 10.0 mi East 12.7 mph 20.7 mph N/A   Clear
3:53 AM 41.0 °F 33.9 °F 28.0 °F 60% 29.47 in 10.0 mi East 12.7 mph - N/A   Clear
4:53 AM 41.0 °F 36.4 °F 27.0 °F 57% 29.44 in 10.0 mi East 6.9 mph - N/A   Clear
5:53 AM 43.0 °F 37.2 °F 26.1 °F 51% 29.42 in 10.0 mi East 10.4 mph - N/A   Clear
6:53 AM 45.0 °F 40.1 °F 26.1 °F 48% 29.38 in 10.0 mi East 9.2 mph - N/A   Clear
7:53 AM 44.1 °F 40.1 °F 27.0 °F 51% 29.35 in 10.0 mi ESE 6.9 mph - N/A   Scattered Clouds
8:53 AM 41.0 °F 36.4 °F 27.0 °F 57% 29.33 in 10.0 mi East 6.9 mph - N/A   Overcast
9:53 AM 46.0 °F 40.6 °F 28.0 °F 50% 29.29 in 10.0 mi ENE 11.5 mph - N/A   Clear
10:53 AM 48.9 °F - 28.0 °F 44% 29.28 in 10.0 mi ENE 10.4 mph - N/A   Partly Cloudy
11:53 AM 50.0 °F - 30.0 °F 46% 29.28 in 10.0 mi East 5.8 mph - N/A   Mostly Cloudy
12:53 PM 52.0 °F - 30.9 °F 45% 29.27 in 10.0 mi ENE 10.4 mph - N/A   Clear
1:53 PM 55.0 °F - 30.9 °F 40% 29.27 in 10.0 mi ESE 5.8 mph - N/A   Clear
2:53 PM 57.9 °F - 32.0 °F 37% 29.29 in 10.0 mi South 15.0 mph 26.5 mph N/A   Clear
3:53 PM 48.9 °F - 33.1 °F 54% 29.35 in 10.0 mi WSW 9.2 mph 26.5 mph N/A   Partly Cloudy
4:53 PM 46.9 °F - 35.1 °F 63% 29.39 in 10.0 mi WNW 9.2 mph - N/A   Scattered Clouds
5:53 PM 44.1 °F 39.5 °F 37.0 °F 76% 29.41 in 10.0 mi SSE 8.1 mph - 0.01 in Rain Light Rain
6:53 PM 42.1 °F 40.2 °F 36.0 °F 79% 29.42 in 10.0 mi East 3.5 mph - 0.00 in   Overcast
7:53 PM 37.9 °F - 35.1 °F 89% 29.44 in 10.0 mi Calm Calm - N/A   Partly Cloudy
8:53 PM 35.1 °F 29.3 °F 33.1 °F 92% 29.46 in 10.0 mi ESE 6.9 mph - N/A   Clear
9:53 PM 37.9 °F 33.5 °F 33.1 °F 83% 29.48 in 10.0 mi East 5.8 mph - N/A   Clear
10:53 PM 39.0 °F 32.8 °F 33.1 °F 79% 29.51 in 10.0 mi East 9.2 mph - N/A   Clear
11:53 PM 37.9 °F 32.1 °F 32.0 °F 79% 29.53 in 10.0 mi ENE 8.1 mph - N/A   Clear